AirNav   Air Wisconsin pilot careers
 
 1056 users online  

CYPT Pelee Island Airport
Pelee Island, Ontario, Canada

GOING TO PELEE ISLAND?


FAA INFORMATION EFFECTIVE 13 SEPTEMBER 2018

The information below comes from the U.S. Federal Avaition Administration (FAA). The FAA is not the official source of data for facilities located outside the United States, and THESE RECORDS ARE LIKELY NOT COMPLETE OR CORRECT.

Location

FAA Identifier: CYPT
Lat/Long: 41-46-42.0000N / 082-40-41.0000W
41-46.700000N / 082-40.683333W
41.7783333 / -82.6780556
(estimated)
Elevation: 571 ft. / 174 m (estimated)
Variation: 07W ()
Time zone: UTC -4 (UTC -5 during Standard Time)
Zip code: 43440

Airport Operations

Airport use: Open to the public
Activation date: 03/2005
Control tower: no
ARTCC: TORONTO CENTER
FSS: LONDON FIC FLIGHT SERVICE STATION
Attendance: 
Segmented circle: no

Airport Communications

WX AWOS-3 at PCW (18 nm SW): 118.775 (419-734-9955)

Nearby radio navigation aids

VOR radial/distance  VOR name  Freq  Var
YQGr173/29.1WINDSOR VOR/DME113.8006W
DJBr322/34.2DRYER VOR/DME113.6005W
CRLr118/38.4CARLETON VOR/DME115.7003W

 
NDB name  Hdg/Dist  Freq  Var  ID
PORT CLINTON036/17.842307WPCW .--. -.-. .--
GROSSE ILE139/28.741907WRYS .-. -.-- ...

Airport Services

Runway Information

Runway 9/27

Dimensions: 3300 x 75 ft. / 1006 x 23 m
Surface: asphalt
RUNWAY 9  RUNWAY 27
Traffic pattern: leftleft

Runway 18/36

Dimensions: 1500 x 20 ft. / 457 x 6 m
Surface: gravel
RUNWAY 18  RUNWAY 36
Traffic pattern: leftleft

Airport Ownership and Management from official FAA records

Ownership: Publicly-owned

Instrument Procedures

There are no published instrument procedures at CYPT.

Some nearby airports with instrument procedures:

KPCW - Erie-Ottawa International Airport (18 nm SW)
KONZ - Grosse Ile Municipal Airport (29 nm NW)
5A1 - Norwalk-Huron County Airport (33 nm S)
S24 - Sandusky County Regional Airport (33 nm SW)
KLPR - Lorain County Regional Airport (34 nm SE)
 
Loc | Ops | Rwys | IFR | FBO | Links
Com | Nav | Svcs | Stats | Notes


 
Aerial photo
No photo
 
Airport distance calculator
Flying to Pelee Island Airport? Find the distance to fly.

From to CYPT

Sunrise and sunset
Times for 21-Sep-2018
 Local
(UTC-4)
 Zulu
(UTC)
Morning civil twilight06:5010:50
Sunrise07:1811:18
Sunset19:3023:30
Evening civil twilight19:5723:57

Current date and time
Zulu (UTC)  21-Sep-2018 22:13:28
Local (UTC-4)  21-Sep-2018 18:13:28
 
METAR
KPCW 
18nm SW 
212155Z AUTO 28013G19KT 10SM FEW043 28/19 A2984 RMK AO2
CXHA 
18nm NW 
212100Z AUTO 26012G19KT 28/18 RMK AO1 PK WND 25022/2017 SLP084 T02800178 58001
TAF
CYQG 
32nm NW 
211738Z 2118/2218 22020G35KT P6SM BKN030 TEMPO 2118/2120 6SM -SHRA BR OVC020 PROB30 2118/2120 VRB30G40KT 1SM +TSRA BR BKN008 OVC030CB FM212000 26020G30KT P6SM SCT050 BECMG 2122/2124 30015G30KT FM220200 34010G20KT P6SM BKN040 BECMG 2208/2210 36010KT FM221500 02008KT P6SM BKN030 RMK FCST BASED ON AUTO OBS. NXT FCST BY 220000Z
KDTW 
40nm NW 
211857Z 2119/2224 25020G32KT P6SM SCT030 BKN080 BKN200 FM212200 29016G25KT P6SM BKN025 BKN080 BKN200 FM220400 33012KT P6SM BKN025 FM221200 01009KT P6SM BKN035 BKN150
KDET 
40nm N 
211858Z 2119/2218 25020G34KT P6SM SCT035 BKN080 BKN200 FM212200 29016G25KT P6SM BKN025 BKN080 FM220400 33012KT P6SM BKN025 FM221200 01009KT P6SM BKN030 BKN150
NOTAMs
Click for the latest NOTAMs
NOTAMs are issued by the DoD/FAA and will open in a separate window not controlled by AirNav.

 

 
 

Would you like to see your business listed on this page?

 If your business provides an interesting product or service to pilots, flight crews, aircraft, or users of the Pelee Island Airport, you should consider listing it here.  To start the listing process, click on the button below
 
Add a business
 

Other Pages about Pelee Island Airport

Update a link
 
Copyright © AirNav, LLC. All rights reserved. Privacy Policy  Contact